Location: Newark
(42.7133°N, 87.7910°W)
Time: 03:22:37
(UTC+00:00)

A-11 Canister half - Pass Details

Date: 29 September 2019
Orbit: 1527 x 1682 km, 47.3° (Epoch: 18 October)

Event Time Altitude Azimuth Distance (km) Brightness Sun altitude
Exits shadow 09:11:51 48° 275° (W) 1,933 9.1 -28.3°
Maximum altitude 09:14:52 74° 346° (NNW) 1,606 9.0 -27.8°
Drops below altitude 10° 09:24:30 10° 72° (ENE) 3,799 12.1 -26.2°
Sets 09:27:40 0° 74° (ENE) 4,806 12.9 -25.7°
